User: anonymous   Login
Location: Aranbee
(34.0885°N, 118.2342°W)
Time: 23:38:31
(UTC+00:00)
Language:

Tiros 1 despin weight - Orbit

View from above orbital plane
View from above orbital plane
View from above satellite
View from above satellite

Ground track
Ground track

The orbit data is extracted from the following two-line orbital elements,

1   115U 60002D   20340.58735158  .00000126  00000-0  41901-4 0  9994
2   115  48.1650 171.2756 0034735 282.8011  76.9022 14.83659414238381
Epoch (UTC): 05 December 2020 14:05:47
Eccentricity: 0.0034735
inclination: 48.1650°
perigee height: 593 km
apogee height: 642 km
right ascension of ascending node: 171.2756°
argument of perigee: 282.8011°
revolutions per day: 14.83659414
mean anomaly at epoch: 76.9022°
orbit number at epoch: 23838

The dashed part of the orbit path shows where the satellite is in the earth's shadow,  

DLR